www.pogodaiklimat.ru

Погода и климат >> Архив погоды >> Ирак >> Ubaydah Bin Al Jarrah


ПОГОДА в Ubaydah Bin Al Jarrah

  • Прогноз погоды в Ubaydah Bin Al Jarrah
  • Монитор погоды в Ubaydah Bin Al Jarrah
  • Климат города

АРХИВ ПОГОДЫ в Ubaydah Bin Al Jarrah

Время (UTC), дата Ветер
(напр.,м/с)
 
Видим.   Явления Облачность Т
(С)
Тd
(С)
f
(%)
Тe
(С)
Тes
(С)
Комфортность P
(гПа)
Po
(гПа)
Тmin
(С)
Tmax
(С)
R
(мм)
R24
(мм)
S
(см)
09 11.08 В 5 6000 м пыль 5/5 1050 м
[Cu med, cong]
+44.8 +13.1 16 +45 +50 опасность
перегрева
998.1 998.0
12 11.08 В 5 6000 м пыль 5/5 1050 м
[Cu med, cong]
+44.8 +13.1 16 +45 +48 опасность
перегрева
998.1 998.0
15 11.08 В 2 8000 м пыль 4/4 1050 м
[Cu med, cong]
+45.2 +13.8 16 +45 +45 опасность
перегрева
996.4 996.0
21 11.08 В 3 10 км ясно +34.0 +13.7 29 +35 +35 очень
жарко
998.3 998.0
00 12.08 В 3 10 км ясно +33.4 +13.7 30 +34 +34 очень
жарко
997.8 998.0
03 12.08 штиль 0 10 км 4/4 1050 м
[Cu hum]
+29.6 +16.1 44 +33 +33 душно 998.4 998.0
09 12.08 ЮВ 2 10 км 3/3 1050 м
[Cu hum]
+44.6 +17.2 21 +47 +61 опасность
перегрева
998.7 999.0
12 12.08 В 2 10 км ясно +47.6 +14.1 15 +48 +59 опасность
перегрева
997.4 997.0
00 13.08 штиль 0 10 км ясно +34.4 +13.4 28 +35 +35 очень
жарко
997.7 998.0
03 13.08 штиль 0 10 км ясно +31.0 +13.8 35 +32 +33 жарко 998.3 998.0
06 13.08 штиль 0 10 км ясно +40.0 +13.8 21 +40 +55 опасность
солнечного
удара
999.0 999.0 +30.0
09 13.08 штиль 0 10 км ясно +47.0 +12.9 14 +47 +74 опасность
перегрева
999.5 1000.0
12 13.08 С 2 10 км ясно +49.4 +8.1 9 +47 +58 опасность
перегрева
998.5 999.0
15 13.08 СЗ 3 10 км ясно +46.8 +4.3 8 +44 +44 опасность
перегрева
997.3 997.0
00 14.08 С 2 10 км ясно +33.0 +7.2 20 +31 +31 жарко 998.9 999.0
06 14.08 СЗ 6 10 км 1/0
[Ci sp]
+40.8 +9.2 15 +39 +43 очень
жарко
1000.4 1000.0 +29.7
12 14.08 СЗ 6 10 км ясно +47.6 +9.3 11 +46 +50 опасность
перегрева
999.8 1000.0
15 14.08 СЗ 6 10 км ясно +45.0 +9.4 12 +43 +43 опасность
перегрева
998.2 998.0
18 14.08 СЗ 2 10 км ясно +36.0 +11.0 22 +35 +35 очень
жарко
1000.6 1001.0 +48.2
21 14.08 СЗ 3 10 км ясно +33.4 +10.3 24 +33 +33 жарко 1001.1 1001.0
00 15.08 СЗ 3 10 км ясно +32.6 +10.5 26 +32 +32 жарко 1000.4 1000.0
03 15.08 штиль 0 10 км ясно +29.2 +11.1 33 +30 +30 жарко 1000.3 1000.0
06 15.08 СЗ 2 10 км ясно +38.2 +13.8 24 +39 +50 очень
душно
1001.4 1001.0 +28.2
09 15.08 З 3 10 км ясно +44.4 +12.9 16 +44 +61 опасность
перегрева
1001.1 1001.0
12 15.08 З 5 10 км ясно +45.2 +8.8 12 +43 +49 опасность
перегрева
1000.2 1000.0
15 15.08 СЗ 2 10 км ясно +42.8 +7.7 12 +40 +41 очень
жарко
1000.1 1000.0
18 15.08 З 2 10 км ясно +37.0 +11.2 21 +36 +36 очень
жарко
1001.3 1001.0 +45.5
00 16.08 штиль 0 10 км ясно +30.0 +12.8 35 +31 +31 жарко 1000.2 1000.0
03 16.08 штиль 0 10 км ясно +28.7 +11.1 34 +29 +30 жарко 1001.3 1001.0
06 16.08 штиль 0 10 км ясно +39.4 +13.3 21 +39 +54 опасность
солнечного
удара
1002.6 1003.0 +27.0
12 16.08 штиль 0 10 км 1/1 1050 м
[Cu hum]
+46.0 +14.3 16 +46 +59 опасность
перегрева
1000.5 1001.0
21 16.08 С 3 10 км ясно +32.6 +16.5 38 +36 +36 очень
душно
1001.1 1001.0
09 17.08 Ю 2 10 км 3/3 1050 м
[Cu hum]
+46.0 +10.9 13 +45 +59 опасность
перегрева
1001.3 1001.0
12 17.08 ЮЗ 2 5000 м пыль 3/0
[Ci sp]
+47.6 +12.4 13 +47 +57 опасность
перегрева
999.5 1000.0
15 17.08 З 2 6000 м пыль 4/3 1050 м
[Cu hum Ci sp]
+44.2 +13.6 17 +44 +45 опасность
перегрева
998.4 998.0
18 17.08 ЮЗ 3 6000 м пыль ясно +40.4 +15.5 23 +42 +42 опасность
перегрева
999.8 1000.0 +48.2
21 17.08 СЗ 2 6000 м пыль ясно +36.0 +11.6 23 +36 +36 очень
жарко
1000.0 1000.0
00 18.08 СЗ 3 6000 м пыль ясно +34.0 +9.7 23 +33 +33 жарко 999.6 1000.0
03 18.08 штиль 0 10 км пыль 4/0
[Ac trans Ci fib]
+31.0 +14.7 37 +33 +33 душно 1000.6 1001.0
06 18.08 штиль 0 6000 м пыль 3/0
[Ci sp]
+39.4 +15.2 24 +40 +54 опасность
солнечного
удара
1001.8 1002.0 +30.0

 

Местоположение метеостанции Ubaydah Bin Al Jarrah (Ирак): широта 32.49 долгота 45.75 высота над уровнем моря 21 м.

В архиве по умолчанию представлена погода в Ubaydah Bin Al Jarrah за последнюю неделю. Архивные данные за месяц целиком и за предыдущие месяцы, начиная с января 2011 года, Вы можете получить, выбрав интересующий диапазон дат из раскрывающегося списка и нажав кнопку "Ввод!".

Внимание! Время в таблицах - всемирное. Для получения местного времени необходимо прибавить поправку, которая в Ubaydah Bin Al Jarrah равна 3 ч.

Смотрите также архив погоды в соседних городах и на ближайших метеорологических станциях:

Погода в Kut-Al-Hai (Ирак) (45 км)
Погода в Badrah (Ирак) (70 км)
Погода в Azizyah (Ирак) (80 км)
Погода в Ali Al-Gharbi (Ирак) (91 км)
Погода в Rifai (Ирак) (92 км)
Погода в Diwaniya (Ирак) (92 км)
Погода в Hella (Ирак) (122 км)
Погода в Samawah (Ирак) (140 км)
Погода в Ilam (Иран) (142 км)
Погода в Najaf (Ирак) (146 км)

Пояснения к столбцам:

Ветер - указаны скорость ветра в м/с - средняя за 10 мин, порывы в срок и между сроками (в фигурных скобках) и направление, откуда дует ветер: С - северный, СВ - северо-восточный, В - восточный, ЮВ - юго-восточный, Ю - южный, ЮЗ - юго-западный, З - западный, СЗ - северо-западный.
Видимость - горизонтальная дальность видимости в метрах или километрах. При видимости от 1 до 10 км при отсутствии осадков обычно наблюдается дымка, при ухудшении видимости до 1 км и менее - туман. В сухую погоду видимость может ухудшаться дымом, пылью или мглою.
Явления - указаны атмосферные явления, наблюдавшиеся в срок или в последний час перед сроком; фигурными скобками обозначены явления, наблюдавшиеся между сроками (за 1-3 часа до срока); квадратными скобками обозначены град или гололедные отложения с указанием их диаметра в мм.
Облачность - указаны через наклонную черту общая и нижняя облачность в баллах и высота нижней границы облаков в метрах; квадратными скобками обозначены формы облаков: Ci - перистые, Cs - перисто-слоистые, Cc - перисто-кучевые, Ac - высококучевые, As - высокослоистые, Sc - слоисто-кучевые, Ns - слоисто-дождевые, Cu - кучевые, Cb - кучево-дождевые. Подробнее классификацию облаков см. в Атласе облаков (PDF).
T - Температура воздуха - температура, измеренная на высоте 2 м над землей.
Td - Температура точки росы - температура, при понижении до которой содержащийся в воздухе водяной пар достигнет насыщения.
f - Относительная влажность воздуха - влажноcть воздуха, измеренная на высоте 2 м над землей.
Te - Эффективная температура - температура, которую ощущает одетый по сезону человек в тени. Характеристика душности погоды. При расчете учитывается влияние влажности воздуха и скорости ветра на теплоощущения человека.
Tes - Эффективная температура на солнце - температура, которую ощущает человек, с поправкой на солнечный нагрев. Характеристика знойности погоды. Зависит от высоты солнца над горизонтом, облачности и скорости ветра. Ночью, в пасмурную погоду, а также при ветре 12 м/с и более поправка равна нулю.
P - Атмосферное давление - приведенное к уровню моря атмосферное давление.
Po - Атмосферное давление - измеренное на уровне метеостанции атмосферное давление.
Tmin - Минимальная температура - минимум температуры воздуха на высоте 2 м над землей.
Tmax - Максимальная температура - максимум температуры воздуха на высоте 2 м над землей.
R - Количество осадков - Количество выпавших осадков за период времени, мм. При наведении курсора мыши на число - период времени, за который выпало указанное количество осадков.
R24 - Количество осадков - Количество выпавших осадков за 24 часа, мм.
S - Снежный покров - Высота снежного покрова, см. При наведении курсора мыши на число - состояние снежного покрова и степень покрытия местности в баллах.